DateTimeUTC,F1_A11,F1_S11,BsB_S11,BsG_S11,BsR_S11,BbsB_S11,BbsG_S11,BbsR_S11,BaB_A11,BaG_A11,BaR_A11,Tu_S11,T_S11,Uu_S11,U_S11,P_S11,T1_A11
2021-12-08T02:00:00Z,00000200,21000000,,,,,,,-000.07,-000.15,0000.06,21.2,27.8,,00.0,0637.4,31.3
2021-12-08T02:01:00Z,00000200,21000000,,,,,,,0000.22,0000.19,-000.04,21.2,27.8,,00.0,0637.3,31.4
2021-12-08T02:02:00Z,00000200,21000000,,,,,,,-000.10,-000.27,-000.20,21.2,27.8,,00.0,0637.4,31.4
2021-12-08T02:03:00Z,00000200,61000000,,,,,,,0000.19,0000.13,0000.34,21.2,27.8,,00.0,0637.4,31.3
2021-12-08T02:04:00Z,00000200,41000000,0000.82,0000.20,-000.21,0000.46,0000.18,-000.44,-000.21,-000.19,-000.20,21.2,27.7,,00.0,0638.2,31.3
2021-12-08T02:05:00Z,00000200,01000000,0000.54,0000.08,0000.11,0000.38,0000.22,-000.17,0000.12,0000.10,0000.18,21.2,27.6,,00.0,0638.3,31.3
2021-12-08T02:06:00Z,00000200,01000000,0001.05,0000.31,0000.03,0000.48,0000.04,-000.16,-000.20,-000.10,-000.10,21.1,27.6,,00.0,0638.2,31.2
2021-12-08T02:07:00Z,00000200,01000000,-000.23,0000.06,-000.07,0000.20,-000.01,-000.36,0000.12,-000.15,-000.29,21.0,27.5,,00.0,0638.3,31.2
2021-12-08T02:08:00Z,00000200,01000000,0000.08,0000.01,0000.16,0000.01,-000.08,-000.05,0000.04,0000.10,0000.04,21.0,27.5,,00.0,0638.3,31.2
2021-12-08T02:09:00Z,00000200,01000000,0000.34,-000.15,-000.02,0000.01,0000.28,-000.02,-000.10,-000.03,0000.25,21.1,27.5,,00.0,0638.3,31.2
2021-12-08T02:10:00Z,00000200,01000000,0000.21,0000.12,-000.01,0000.17,-000.07,-000.08,0000.32,-000.13,0000.14,21.1,27.5,,00.0,0638.2,31.2
2021-12-08T02:11:00Z,00000200,01000000,0000.52,0000.58,-000.31,0000.34,0000.29,0000.03,0000.15,0000.42,0000.24,21.1,27.5,,00.0,0638.2,31.2
2021-12-08T02:12:00Z,00000200,01000000,0000.79,0000.36,-000.10,0000.38,-000.15,0000.01,0000.08,0000.44,0000.01,21.1,27.5,,00.0,0638.2,31.2
2021-12-08T02:13:00Z,00000200,01000000,-000.42,0000.04,0000.15,0000.70,0000.06,0000.14,-000.08,-000.30,0000.07,21.2,27.5,,00.0,0638.2,31.2
2021-12-08T02:14:00Z,00000200,01000000,0000.16,0000.13,0000.00,0000.34,0000.04,0000.22,0000.28,0000.44,0000.09,21.2,27.5,,00.0,0638.2,31.2
2021-12-08T02:15:00Z,00000200,01000000,-000.05,0000.22,-000.22,0000.70,-000.18,0000.06,-000.04,-000.01,0000.02,21.2,27.5,,00.0,0638.2,31.3
2021-12-08T02:16:00Z,00000200,01000000,0000.27,-000.18,-000.52,0000.14,0000.09,-000.72,-000.19,-000.22,-000.01,21.3,27.5,,00.0,0638.3,31.3
2021-12-08T02:17:00Z,00000200,01000000,-000.24,-000.13,0000.01,0000.13,0000.15,-000.08,-000.12,0000.28,-000.26,21.3,27.5,,00.0,0638.3,31.3
2021-12-08T02:18:00Z,00000200,01000000,0000.23,0000.23,-000.13,0000.08,0000.29,0000.06,0000.35,0000.10,0000.41,21.3,27.5,,00.0,0638.3,31.3
2021-12-08T02:19:00Z,00000200,01000000,0000.61,0000.20,-000.31,0000.36,-000.14,-000.40,0000.05,-000.24,-000.31,21.3,27.6,,00.0,0638.3,31.3
2021-12-08T02:20:00Z,00000200,01000000,0000.12,-000.14,-000.16,0000.23,0000.04,0000.11,-000.05,-000.16,-000.07,21.3,27.6,,00.0,0638.3,31.3
2021-12-08T02:21:00Z,00000200,01000000,0000.26,0000.32,-000.35,-000.09,-000.05,0000.10,-000.30,-000.14,0000.39,21.2,27.6,,00.0,0638.3,31.3
2021-12-08T02:22:00Z,00000200,01000000,0000.32,0000.28,-000.29,0000.70,-000.02,-000.14,0000.21,0000.18,-000.19,21.2,27.5,,00.0,0638.3,31.3
2021-12-08T02:23:00Z,00000200,01000000,0000.22,0000.19,-000.16,0000.27,0000.14,-000.07,0000.16,0000.13,0000.06,21.2,27.5,,00.0,0638.3,31.2
2021-12-08T02:24:00Z,00000200,01000000,0000.20,0000.10,0000.13,0000.41,0000.44,0000.14,-000.05,-000.33,-000.28,21.2,27.5,,00.0,0638.3,31.3
2021-12-08T02:25:00Z,00000200,01000000,0000.11,0000.01,-000.31,0000.23,0000.03,-000.27,0000.01,0000.14,0000.20,21.2,27.5,,00.0,0638.3,31.3
2021-12-08T02:26:00Z,00000200,01000000,0000.48,-000.01,0000.03,0000.17,-000.08,0000.17,-000.01,0000.13,0000.27,21.2,27.5,,00.0,0638.3,31.3
2021-12-08T02:27:00Z,00000200,01000000,-000.05,-000.08,-000.19,-000.16,0000.35,-000.13,0000.11,0000.49,-000.17,21.3,27.5,,00.0,0638.2,31.3
2021-12-08T02:28:00Z,00000200,01000000,0000.02,0000.09,-000.07,0000.24,0000.14,0000.01,0000.30,-000.36,0000.10,21.3,27.6,,00.0,0638.3,31.3
2021-12-08T02:29:00Z,00000200,01000000,0001.01,0000.12,0000.12,0000.10,0000.34,0000.03,-000.00,0000.30,0000.13,21.3,27.6,,00.0,0638.2,31.3
2021-12-08T02:30:00Z,00000200,01000000,-000.10,0000.02,-000.20,0000.07,0000.01,0000.05,0000.12,0000.22,0000.23,21.3,27.6,,00.0,0638.2,31.3
2021-12-08T02:31:00Z,00000200,01000000,0000.14,0000.07,0000.11,0000.69,-000.12,0000.31,0000.09,0000.02,0000.21,21.4,27.6,,00.0,0638.2,31.3
2021-12-08T02:32:00Z,00000200,01000000,0001.32,-000.07,0000.34,-000.29,-000.11,-000.20,0000.07,-000.10,-000.11,21.4,27.6,,00.0,0638.2,31.3
2021-12-08T02:33:00Z,00000200,01000000,0000.69,0000.30,-000.20,-000.07,-000.32,-000.07,0000.09,0000.07,-000.18,21.4,27.6,,00.0,0638.2,31.3
2021-12-08T02:34:00Z,00000200,01000000,0000.54,-000.02,-000.33,-000.37,0000.15,0000.04,-000.07,0000.10,0000.22,21.4,27.7,,00.0,0638.2,31.3
2021-12-08T02:35:00Z,00000200,01000000,0000.55,0000.14,0000.15,0000.93,-000.26,0000.07,0000.08,0000.17,0000.05,21.5,27.7,,00.0,0638.2,31.3
2021-12-08T02:36:00Z,00000200,01000000,-000.29,-000.00,-000.13,-000.36,-000.07,0000.04,0000.14,0000.29,0000.36,21.4,27.7,,00.0,0638.2,31.3
2021-12-08T02:37:00Z,00000200,01000000,0000.53,0000.29,-000.59,-000.04,-000.26,-000.49,0000.15,-000.63,-000.33,21.4,27.7,,00.0,0638.2,31.3
2021-12-08T02:38:00Z,00000200,01000000,-000.14,0000.20,-000.26,-000.00,0000.01,-000.36,-000.05,0000.17,0000.16,21.4,27.7,,00.0,0638.1,31.3
2021-12-08T02:39:00Z,00000200,01000000,0000.60,0000.27,-000.31,-000.28,0000.19,-000.24,0000.24,0000.46,-000.05,21.4,27.6,,00.0,0638.1,31.3
2021-12-08T02:40:00Z,00000200,01000000,-000.08,-000.18,0000.10,0000.17,0000.21,0000.25,0000.18,0000.10,0000.25,21.4,27.7,,00.0,0638.1,31.3
2021-12-08T02:41:00Z,00000200,01000000,0000.07,-000.09,0000.01,-000.21,0000.20,0000.02,-000.17,-000.05,-000.23,21.5,27.7,,00.0,0638.2,31.3
2021-12-08T02:42:00Z,00000200,01000000,0000.32,0000.31,0000.27,-000.26,0000.15,-000.02,-000.03,0000.23,0000.26,21.5,27.7,,00.0,0638.2,31.4
2021-12-08T02:43:00Z,00000200,01000000,0000.20,0000.07,0000.03,0000.26,0000.00,-000.35,0000.18,-000.11,-000.08,21.5,27.7,,00.0,0638.1,31.4
2021-12-08T02:44:00Z,00000200,01000000,0000.31,-000.13,-000.06,0000.06,0000.07,0000.09,0000.18,0000.17,-000.10,21.5,27.7,,00.0,0638.3,31.4
2021-12-08T02:45:00Z,00000200,01000000,-000.59,0000.30,-000.23,0000.52,-000.23,-000.73,-000.08,-000.07,0000.22,21.6,27.7,,00.0,0638.3,31.4
2021-12-08T02:46:00Z,00000200,01000000,0000.17,0000.11,-000.06,0000.68,0000.19,0000.06,0000.09,-000.11,0000.06,21.6,27.7,,00.0,0638.2,31.4
2021-12-08T02:47:00Z,00000200,01000000,0000.32,0000.02,-000.09,0000.13,0000.05,-000.26,-000.05,0000.13,-000.06,21.6,27.8,,00.0,0638.2,31.4
2021-12-08T02:48:00Z,00000200,01000000,0000.09,0000.14,0000.35,0000.55,0000.17,-000.17,-000.01,0000.03,0000.11,21.7,27.8,,00.0,0638.2,31.4
2021-12-08T02:49:00Z,00000200,01000000,0000.58,0000.08,0000.12,0000.27,-000.14,0000.14,0000.17,0000.12,0000.19,21.7,27.8,,00.0,0638.2,31.4
2021-12-08T02:50:00Z,00000200,01000000,0000.86,0000.21,0000.01,0000.30,0000.32,-000.06,0000.05,-000.08,0000.05,21.7,27.8,,00.0,0638.1,31.5
2021-12-08T02:51:00Z,00000200,01000000,0000.13,0000.06,0000.12,-000.04,-000.25,0000.19,-000.22,0000.15,-000.36,21.7,27.8,,00.0,0638.1,31.5
2021-12-08T02:52:00Z,00000200,01000000,0000.02,-000.06,-000.15,0000.46,-000.19,0000.19,0000.24,0000.24,0000.24,21.6,27.8,,00.0,0638.1,31.5
2021-12-08T02:53:00Z,00000200,01000000,0000.37,-000.26,-000.34,0000.55,0000.20,-000.18,-000.12,-000.14,-000.11,21.7,27.8,,00.0,0638.1,31.5
2021-12-08T02:54:00Z,00000200,01000000,0000.41,0000.05,-000.10,0000.44,-000.14,-000.58,0000.03,0000.21,0000.38,21.7,27.8,,00.0,0638.1,31.5
2021-12-08T02:55:00Z,00000200,01000000,-000.31,0000.20,-000.00,0000.87,0000.21,-000.27,0000.08,0000.04,-000.12,21.7,27.8,,00.0,0638.1,31.5
2021-12-08T02:56:00Z,00000200,01000000,0001.06,0000.06,-000.20,0000.03,0000.09,-000.08,0000.17,-000.18,0000.04,21.7,27.8,,00.0,0638.1,31.5
2021-12-08T02:57:00Z,00000200,41000000,,,,,,,0000.29,0000.09,0000.19,21.7,27.9,,00.0,0638.3,31.5
2021-12-08T02:58:00Z,00000200,61000000,,,,,,,-000.26,-000.01,-000.12,21.5,27.9,,00.0,0637.2,31.5
2021-12-08T02:59:00Z,00000200,21000000,,,,,,,0000.14,-000.07,0000.30,21.5,28.0,,00.0,0637.1,31.5
